[[{"header":{"parameterUnit":"m.s-1","parameterCategory":1,"la1":30.2991,"la2":30.254,"lo1":-89.0895,"lo2":-89.0444,"dy":0.0017,"dx":0.0017,"nx":28,"ny":28,"refTime":"2023-10-15T21:00:00:Z","depth":0,"parameterNumber":2,"parameterNumberName":"U-component_of_WINDS"},"data":[0,0,0,0,0,0,0,0,0,0,0,0,0,0,0,0,0,0,0,0,0,0,0,0,0,0,0,0,0,0,0,0,0,0,0,0,0,0,0,0,0,0,0,0,0,0,0,0,0,0,0,0,0,0,0,0,0,0,1.413,1.413,0,1.4123,1.4123,1.4123,1.4105,1.4104,1.4104,1.4104,1.4096,1.4096,1.4096,0,0,0,0,0,0,0,0,0,0,0,0,0,1.4127,1.4128,1.413,1.413,1.413,1.4123,1.4123,1.4123,1.4105,1.4104,1.4104,1.4103,1.4096,1.4096,1.4096,0,0,0,0,0,0,0,0,0,0,0,0,0,1.4125,1.4128,1.413,1.412,1.4119,1.4123,1.4123,1.4123,1.4105,1.4104,1.4104,1.4103,1.4096,1.4096,1.4096,1.4109,0,0,1.4097,1.4097,0,0,0,0,0,0,0,0,1.4125,1.4125,1.4121,1.412,1.4119,1.4114,1.4119,1.4118,1.4105,1.411,1.4104,1.4103,1.4102,1.4102,1.4102,1.4109,1.4108,1.4097,1.4097,1.4097,1.4097,0,0,0,0,0,0,0,1.4126,1.4126,1.4127,1.4121,1.412,1.4116,1.4115,1.4119,1.4109,1.411,1.4108,1.4108,1.4102,1.4102,1.4102,1.4108,1.4097,1.4097,1.4097,1.4097,1.4127,1.4128,0,0,0,0,0,0,1.4127,1.4126,1.4127,1.4127,1.4121,1.4116,1.4115,1.4116,1.4109,1.4108,1.4108,1.4107,1.4102,1.4101,1.4101,1.4116,1.4097,1.4097,1.4097,1.4126,1.4127,1.4128,0,0,0,0,0,0,1.4127,1.4128,1.4127,1.4126,1.4126,1.4117,1.4118,1.4117,1.4117,1.4108,1.4107,1.411,1.4101,1.4101,1.4108,1.4116,1.4097,1.4098,1.4126,1.4127,1.4127,1.4147,0,0,0,0,0,0,1.4127,1.4128,1.4132,1.4126,1.4126,1.4134,1.4119,1.4117,1.4117,1.4115,1.411,1.4108,1.4101,1.4107,1.4108,1.4116,1.4098,1.4125,1.4126,1.4127,1.4145,1.4148,1.4151,0,0,0,0,0,1.4127,1.4137,1.4132,1.4133,1.4131,1.4134,1.4134,1.4126,1.4118,1.4123,1.4118,1.4108,1.4115,1.4108,1.4109,1.4117,1.4124,1.4126,1.4127,1.4144,1.4148,1.4151,0,0,0,0,0,0,1.4143,1.4136,1.4131,1.4139,1.4138,1.4131,1.4137,1.413,1.413,1.4128,1.4117,1.4116,1.4125,1.4122,1.4114,1.413,1.4118,1.412,1.4131,1.4135,1.4137,1.4137,1.4098,0,0,0,0,0,1.4148,1.4151,1.4145,1.4153,1.4153,1.4145,1.4146,1.414,1.4138,1.4137,1.4132,1.413,1.4132,1.4133,1.4135,1.4146,1.4144,1.4152,1.4154,1.4157,1.4158,1.4165,1.4168,1.4133,1.4133,1.4133,0,0,1.4158,1.4154,1.4156,1.4156,1.4154,1.4158,1.4144,1.4148,1.4151,1.4137,1.4143,1.414,1.4138,1.4147,1.4151,1.4144,1.4168,1.4159,1.4161,1.416,1.4166,1.417,1.4173,1.4134,1.4133,1.4133,0,0,1.4176,1.4174,1.4181,1.418,1.4178,1.4173,1.4175,1.417,1.4168,1.4174,1.4164,1.4167,1.4171,1.4169,1.4169,1.4191,1.4182,1.4191,1.4205,1.4212,1.4215,1.4217,1.4225,1.4228,1.4193,1.4193,1.4193,0,1.4188,1.4193,1.4185,1.4191,1.4191,1.418,1.4187,1.4187,1.4185,1.4185,1.4179,1.4184,1.4181,1.4191,1.4196,1.4196,1.4198,1.4191,1.4215,1.4217,1.4219,1.4227,1.423,1.4194,1.4194,1.4194,1.4194,0,1.4208,1.4212,1.4218,1.4217,1.4219,1.4225,1.4218,1.4221,1.4216,1.4212,1.4219,1.4216,1.4217,1.4219,1.4213,1.4228,1.4225,1.4217,1.4205,1.4224,1.4231,1.4233,1.4196,1.4195,1.4195,1.4195,0,0,1.4234,1.4231,1.4234,1.4234,1.4232,1.4234,1.4241,1.4243,1.4245,1.4245,1.425,1.4255,1.4248,1.4248,1.4242,1.4248,1.4266,1.424,1.424,1.4245,1.4283,1.4288,1.4292,1.4261,1.4262,1.4262,1.4283,0,1.4252,1.4263,1.4257,1.4268,1.4272,1.4263,1.4269,1.4269,1.4266,1.4269,1.4266,1.427,1.426,1.4261,1.4266,1.4263,1.4274,1.4261,1.4266,1.4266,1.4266,1.4295,1.43,1.432,1.4286,1.4286,1.4287,0,1.4273,1.4275,1.4287,1.4286,1.4287,1.4292,1.4294,1.4298,1.4298,1.4295,1.4297,1.429,1.4297,1.4287,1.4296,1.4288,1.429,1.4289,1.429,1.4289,1.4277,1.4295,1.4326,1.4329,1.4291,1.429,1.429,0,1.4291,1.4297,1.4305,1.4306,1.4304,1.4308,1.4308,1.4307,1.4309,1.4311,1.4313,1.4315,1.4317,1.4319,1.4314,1.4307,1.4325,1.4314,1.4323,1.4323,1.4326,1.4326,1.4358,1.4329,1.4329,1.4329,1.4329,0,1.4311,1.4319,1.4313,1.4318,1.4327,1.4321,1.433,1.4329,1.4329,1.4334,1.4327,1.4331,1.4325,1.4329,1.4326,1.4335,1.4335,1.4334,1.4333,1.4334,1.4334,1.4334,1.4332,1.433,1.4329,1.4329,1.4329,0,1.4332,1.4328,1.4337,1.4336,1.4336,1.4342,1.4341,1.4346,1.4344,1.4351,1.4352,1.4348,1.4353,1.4349,1.4354,1.4351,1.4363,1.436,1.4363,1.4362,1.4372,1.4371,1.4404,1.4409,1.4378,1.4378,1.4378,0,1.4344,1.435,1.435,1.4353,1.4353,1.4358,1.4361,1.4356,1.4359,1.4361,1.4366,1.437,1.4374,1.4382,1.438,1.4384,1.4381,1.4393,1.4382,1.4383,1.4381,1.4381,1.4381,1.4394,1.4395,1.4395,1.4395,0,1.4366,1.4365,1.4368,1.4372,1.4376,1.4379,1.4381,1.4384,1.4379,1.4383,1.4389,1.4392,1.4397,1.4402,1.4406,1.4406,1.44,1.4399,1.4402,1.4403,1.4404,1.4403,1.4369,1.4398,1.4398,1.4398,1.4397,1.4397,1.4382,1.4387,1.4389,1.4394,1.4396,1.4398,1.4403,1.4403,1.4407,1.4412,1.4409,1.4416,1.4418,1.4422,1.4423,1.4429,1.4424,1.4428,1.4428,1.4429,1.4431,1.4404,1.443,1.443,1.443,1.4429,1.4429,0,1.4404,1.4405,1.441,1.4413,1.4418,1.4413,1.4416,1.442,1.4426,1.4429,1.4433,1.444,1.4446,1.4445,1.445,1.4455,1.4452,1.4456,1.4455,1.4456,1.4434,1.4432,1.4458,1.4458,1.4458,1.4458,1.4458,1.4458,1.4415,1.4424,1.4423,1.4434,1.4435,1.4442,1.4444,1.4447,1.4449,1.4457,1.4462,1.4462,1.4464,1.4469,1.4474,1.4474,1.4476,1.4481,1.448,1.446,1.4457,1.4454,1.4452,1.4482,1.4482,1.4501,1.4501,1.4501]},{"header":{"parameterUnit":"m.s-1","parameterCategory":1,"la1":30.2991,"la2":30.254,"lo1":-89.0895,"lo2":-89.0444,"dy":0.0017,"dx":0.0017,"nx":28,"ny":28,"refTime":"2023-10-15T21:00:00:Z","depth":0,"parameterNumber":3,"parameterNumberName":"V-component_of_WINDS"},"data":[0,0,0,0,0,0,0,0,0,0,0,0,0,0,0,0,0,0,0,0,0,0,0,0,0,0,0,0,0,0,0,0,0,0,0,0,0,0,0,0,0,0,0,0,0,0,0,0,0,0,0,0,0,0,0,0,0,0,-8.4839,-8.4841,0,-8.5027,-8.503,-8.5032,-8.4935,-8.493,-8.4925,-8.492,-8.5103,-8.5113,-8.5122,0,0,0,0,0,0,0,0,0,0,0,0,0,-8.4386,-8.4395,-8.4839,-8.4841,-8.4844,-8.5027,-8.503,-8.5032,-8.4936,-8.493,-8.4924,-8.4918,-8.51,-8.5111,-8.5123,0,0,0,0,0,0,0,0,0,0,0,0,0,-8.4579,-8.4398,-8.4839,-8.4818,-8.4818,-8.5027,-8.503,-8.5033,-8.4937,-8.493,-8.4922,-8.4915,-8.5097,-8.511,-8.5124,-8.5361,0,0,-8.5168,-8.5174,0,0,0,0,0,0,0,0,-8.4569,-8.4596,-8.4819,-8.482,-8.482,-8.495,-8.4937,-8.5143,-8.4939,-8.4892,-8.492,-8.4912,-8.5058,-8.5075,-8.5126,-8.5369,-8.5377,-8.5169,-8.5178,-8.5184,-8.5188,0,0,0,0,0,0,0,-8.4555,-8.4587,-8.4913,-8.4822,-8.4823,-8.4796,-8.4815,-8.4975,-8.5014,-8.4895,-8.4889,-8.4913,-8.5057,-8.5113,-8.513,-8.538,-8.5169,-8.5181,-8.519,-8.5196,-8.5826,-8.5834,0,0,0,0,0,0,-8.4544,-8.4577,-8.4907,-8.4919,-8.4674,-8.481,-8.4832,-8.4916,-8.5012,-8.502,-8.4919,-8.4908,-8.5092,-8.5113,-8.5136,-8.5419,-8.5184,-8.5197,-8.5205,-8.5818,-8.5828,-8.5837,0,0,0,0,0,0,-8.4535,-8.4575,-8.49,-8.4746,-8.4786,-8.4826,-8.4921,-8.4924,-8.4979,-8.503,-8.5035,-8.497,-8.5087,-8.5116,-8.5306,-8.5424,-8.5204,-8.5216,-8.5808,-8.5821,-8.5832,-8.5988,0,0,0,0,0,0,-8.4522,-8.4572,-8.4665,-8.4749,-8.4794,-8.5071,-8.4929,-8.4933,-8.5006,-8.4992,-8.5079,-8.5086,-8.5083,-8.5286,-8.5321,-8.544,-8.5228,-8.5798,-8.5814,-8.5828,-8.5973,-8.6004,-8.6031,0,0,0,0,0,-8.4507,-8.4699,-8.467,-8.471,-8.4912,-8.5078,-8.5103,-8.5099,-8.5015,-8.5107,-8.514,-8.5083,-8.5406,-8.5306,-8.5344,-8.547,-8.579,-8.5809,-8.5827,-8.5959,-8.5998,-8.6031,0,0,0,0,0,0,-8.4623,-8.4709,-8.4678,-8.4904,-8.4985,-8.5061,-8.5177,-8.514,-8.5243,-8.5226,-8.5213,-8.5233,-8.5432,-8.5469,-8.5357,-8.5703,-8.5585,-8.5612,-8.5672,-8.5709,-8.5738,-8.5724,-8.5239,0,0,0,0,0,-8.4676,-8.4807,-8.4873,-8.5066,-8.5109,-8.5136,-8.5208,-8.5199,-8.528,-8.5312,-8.5359,-8.5437,-8.5556,-8.5634,-8.5746,-8.5977,-8.5994,-8.6082,-8.6111,-8.6135,-8.6159,-8.6283,-8.6323,-8.5897,-8.5897,-8.5897,0,0,-8.4784,-8.4848,-8.493,-8.5091,-8.5152,-8.5286,-8.5165,-8.5311,-8.5409,-8.5333,-8.5518,-8.5554,-8.564,-8.5853,-8.5948,-8.589,-8.628,-8.6159,-8.6178,-8.6188,-8.6306,-8.6347,-8.6382,-8.591,-8.5908,-8.5906,0,0,-8.5051,-8.5113,-8.528,-8.5345,-8.5441,-8.5458,-8.5498,-8.5581,-8.5604,-8.5789,-8.5735,-8.5849,-8.6054,-8.6119,-8.6178,-8.647,-8.6421,-8.6506,-8.6659,-8.6781,-8.6814,-8.6844,-8.6948,-8.6985,-8.6529,-8.653,-8.653,0,-8.5173,-8.5375,-8.537,-8.5522,-8.5593,-8.5534,-8.5703,-8.5764,-8.589,-8.594,-8.5873,-8.6131,-8.6184,-8.6411,-8.6482,-8.6532,-8.6576,-8.6496,-8.6811,-8.684,-8.6868,-8.6967,-8.7006,-8.6539,-8.6538,-8.6537,-8.6536,0,-8.552,-8.5661,-8.5784,-8.5912,-8.5997,-8.6156,-8.6173,-8.6259,-8.6241,-8.6265,-8.6453,-8.6516,-8.664,-8.6693,-8.6676,-8.6917,-8.6878,-8.6812,-8.6692,-8.6918,-8.7011,-8.7049,-8.6553,-8.655,-8.6547,-8.6544,0,0,-8.5865,-8.599,-8.6035,-8.6093,-8.6194,-8.6301,-8.6456,-8.6581,-8.6655,-8.6743,-8.6872,-8.7047,-8.6987,-8.7054,-8.7044,-8.7151,-8.7378,-8.7071,-8.7072,-8.7126,-8.7647,-8.7696,-8.7741,-8.7346,-8.7353,-8.7359,-8.7639,0,-8.6139,-8.6415,-8.6416,-8.6669,-8.6798,-8.6744,-8.6879,-8.6954,-8.698,-8.709,-8.7117,-8.7242,-8.7153,-8.7194,-8.7297,-8.7328,-8.7482,-8.7308,-8.7463,-8.7469,-8.7444,-8.7789,-8.7842,-8.8104,-8.7676,-8.7682,-8.7686,0,-8.6496,-8.6601,-8.6868,-8.6952,-8.7005,-8.7127,-8.7242,-8.7349,-8.7432,-8.7443,-8.752,-8.7493,-8.7648,-8.7524,-8.7736,-8.7618,-8.7681,-8.7706,-8.7716,-8.773,-8.7592,-8.7812,-8.8187,-8.8226,-8.7743,-8.7739,-8.7734,0,-8.6721,-8.6928,-8.7115,-8.7166,-8.7268,-8.7355,-8.74,-8.7476,-8.7552,-8.765,-8.7699,-8.7813,-8.7875,-8.7963,-8.7966,-8.7876,-8.818,-8.8056,-8.8192,-8.8192,-8.8258,-8.8254,-8.8648,-8.8299,-8.8298,-8.8298,-8.8297,0,-8.7027,-8.7193,-8.7218,-8.7333,-8.7516,-8.7514,-8.7694,-8.7731,-8.78,-8.7919,-8.7877,-8.7989,-8.7987,-8.81,-8.8103,-8.8278,-8.8305,-8.8317,-8.8316,-8.8322,-8.832,-8.8363,-8.8345,-8.8308,-8.8306,-8.8304,-8.8302,0,-8.731,-8.7334,-8.7534,-8.7616,-8.764,-8.7771,-8.7839,-8.7947,-8.7969,-8.812,-8.8155,-8.8189,-8.832,-8.8332,-8.8483,-8.8485,-8.8696,-8.8675,-8.867,-8.8666,-8.8801,-8.8788,-8.9236,-8.9295,-8.8908,-8.8911,-8.8914,0,-8.7504,-8.7631,-8.7727,-8.7806,-8.7858,-8.7984,-8.8062,-8.8063,-8.8145,-8.825,-8.8345,-8.8472,-8.8574,-8.8785,-8.8821,-8.8936,-8.8917,-8.9066,-8.8934,-8.8936,-8.892,-8.8912,-8.8925,-8.9092,-8.9096,-8.91,-8.9102,0,-8.7846,-8.7852,-8.7968,-8.8088,-8.8183,-8.8276,-8.8364,-8.8429,-8.8441,-8.8534,-8.867,-8.875,-8.8905,-8.9032,-8.9145,-8.9187,-8.9147,-8.9144,-8.9181,-8.9188,-8.918,-8.9187,-8.874,-8.9134,-8.9131,-8.9128,-8.9127,-8.9125,-8.8091,-8.8201,-8.8287,-8.8416,-8.8483,-8.8566,-8.8673,-8.8709,-8.8824,-8.8953,-8.8946,-8.9095,-8.9173,-8.9322,-8.9373,-8.9488,-8.9437,-8.9491,-8.9505,-8.9518,-8.9533,-8.9162,-8.9508,-8.9507,-8.9506,-8.9505,-8.9505,0,-8.8431,-8.8483,-8.8603,-8.8729,-8.8831,-8.8787,-8.8882,-8.8969,-8.9102,-8.9181,-8.9283,-8.9438,-8.9561,-8.9607,-8.9726,-8.9809,-8.9793,-8.984,-8.9834,-8.9844,-8.9571,-8.9527,-8.9851,-8.9851,-8.9851,-8.9851,-8.985,-8.985,-8.862,-8.8805,-8.8821,-8.9038,-8.9088,-8.9237,-8.9295,-8.937,-8.9433,-8.961,-8.9713,-8.9744,-8.9809,-8.9932,-9.0042,-9.0052,-9.0097,-9.0152,-9.0155,-8.9898,-8.9863,-8.983,-8.9789,-9.0162,-9.0163,-9.0418,-9.0421,-9.0422]}]]